Regional Weather Roundup
Issued by NWS

Home | Current Version | Previous Version | Graphics & Text | Print | Product List | Glossary On
Versions: 1 2 3 4 5 6 7 8 9 10 11 12 13 14 15 16 17 18 19 20 21 22 23 24 25 26 27 28 29 30 31 32 33 34 35 36 37 38 39 40 41 42 43 44 45 46 47 48 49 50
000
ASUS43 KIND 181609
RWRIN

WEATHER ROUNDUP FOR INDIANA
NATIONAL WEATHER SERVICE INDIANAPOLIS IN
1200 PM EDT FRI APR 18 2014

NOTE: "FAIR" INDICATES FEW OR NO CLOUDS BELOW 12,000 FEET WITH NO
SIGNIFICANT WEATHER AND/OR OBSTRUCTIONS TO VISIBILITY.

* - STATION DOES NOT REPORT WEATHER SUCH AS PRECIPITATION OR FOG.

+ - STATION NOT QUALITY CONTROLLED BY THE NATIONAL WEATHER SERVICE.
    USE DATA WITH CAUTION...ESPECIALLY DEWPOINT AND RELATIVE
    HUMIDITY OBSERVATIONS.

INZ001>003-010>013-019-020-181700-
NORTHWEST INDIANA

CITY           SKY/WX    TMP DP  RH WIND       PRES   REMARKS
GARY /AIRPORT/ MOSUNNY   46  36  66 N14       30.36R
LA PORTE +     SUNNY     53  38  57 NW8       30.32R
MICHIGAN CITY+ SUNNY     45  34  65 N7        30.34R
MONTICELLO +   SUNNY     59  42  54 W6        30.30R
RENSSELAER +   SUNNY     59  37  44 CALM      30.32R
VALPARAISO     SUNNY     52  38  58 NW8       30.32R

$$

LMZ046-743>745-181700-
SOUTHERN LAKE MICHIGAN

STATION/POSITION TIME  TEMP WIND        PRES
                       AIR  DIR/SP/G
                 (UTC) (F)  (DEG/KT/KT) (MB)
MICHIGAN CITY    1600   40  310/  7/  8   N/A

$$

INZ004-005-014>016-021>024-181700-
NORTH CENTRAL INDIANA

CITY           SKY/WX    TMP DP  RH WIND       PRES   REMARKS
GOSHEN         SUNNY     60  42  51 W14       30.29R
LOGANSPORT +   SUNNY     59  41  51 W3        30.30S
PERU/GRISSOM   SUNNY     61  44  53 NW2       30.29S
ROCHESTER +    SUNNY     63  41  45 W7        30.30S
SOUTH BEND     MOSUNNY   58  40  51 W7        30.31S
WARSAW +       SUNNY     61  41  48 W8        30.29S

$$

INZ006>009-017-018-025>027-181700-
NORTHEAST INDIANA

CITY           SKY/WX    TMP DP  RH WIND       PRES   REMARKS
ANGOLA *+      PTSUNNY   59  45  58 W10       30.27S
AUBURN +       SUNNY     63  37  39 NW8       30.28S
FORT WAYNE     MOSUNNY   64  39  39 SW8       30.29S

$$

INZ028-029-035-036-043>045-051>053-181700-
WEST CENTRAL INDIANA

CITY           SKY/WX    TMP DP  RH WIND       PRES   REMARKS
GREENCASTLE +  SUNNY     63  39  42 W3        30.30S
LAFAYETTE      SUNNY     61  41  47 W5        30.30S
TERRE HAUTE    SUNNY     64  40  41 VRB3      30.30S

$$

INZ030>032-037>040-046>048-054>057-064-065-181700-
CENTRAL INDIANA

CITY           SKY/WX    TMP DP  RH WIND       PRES   REMARKS
ANDERSON       SUNNY     63  36  36 CALM      30.30
CP ATTERBURY + SUNNY     64  41  42 E5        30.30S
COLUMBUS       MOSUNNY   63  37  39 MISG      30.30S
INDIANAPOLIS   MOSUNNY   63  40  42 CALM      30.29S
-EAGLE CREEK   SUNNY     64  39  39 VRB3      30.29R
KOKOMO *+      PTSUNNY   63  41  45 SW5       30.29S
MARION +       CLOUDY    62  37  40 CALM      30.30S
MT COMFORT *+  SUNNY     64  39  39 W5        30.29S
SHELBYVILLE    SUNNY     65  39  38 W6        30.29S
ZIONSVILLE +   CLOUDY    63  36  36 NW3       30.30R

$$

INZ033-034-041-042-049-050-058-059-181700-
EAST CENTRAL INDIANA

CITY           SKY/WX    TMP DP  RH WIND       PRES   REMARKS
MUNCIE         MOSUNNY   63  38  39 W5        30.29S

$$

INZ060-061-067>069-081>083-085>088-181700-
SOUTHWEST INDIANA

CITY           SKY/WX    TMP DP  RH WIND       PRES   REMARKS
EVANSVILLE     SUNNY     66  41  40 VRB3      30.30S
HUNTINGBURG *+ MOSUNNY   64  45  48 CALM      30.30F
WASHINGTON +   MOSUNNY   64  41  44 CALM      30.30R

$$

INZ062-063-066-070>080-084-089>092-181700-
SOUTH CENTRAL AND SOUTHEAST INDIANA

CITY           SKY/WX    TMP DP  RH WIND       PRES   REMARKS
BEDFORD +      MOSUNNY   66  34  30 W3        30.30
BLOOMINGTON    SUNNY     66  38  35 CALM      30.29S
NORTH VERNON + MOSUNNY   64  36  34 CALM      30.31

$$




USA.gov is the U.S. government's official web portal to all federal, state and local government web resources and services.